Regional Weather Roundup
Issued by NWS

Home | Current Version | Previous Version | Graphics & Text | Print | Product List | Glossary On
Versions: 1 2 3 4 5 6 7 8 9 10 11 12 13 14 15 16 17 18 19 20 21 22 23 24 25 26 27 28 29 30 31 32 33 34 35 36 37 38 39 40 41 42 43 44 45 46 47 48 49 50
000
ASUS45 KTFX 240304
RWRMT
MONTANA HOURLY WEATHER ROUNDUP
NATIONAL WEATHER SERVICE GREAT FALLS MT
804 PM MST SUN NOV 23 2014

NOTE: "FAIR" INDICATES FEW OR NO CLOUDS BELOW 12000 FEET WITH NO
SIGNIFICANT WEATHER AND/OR OBSTRUCTIONS TO VISIBILITY.

* THESE STATIONS ARE NOT UNDER NWS QUALITY CONTROL. THEY DO NOT
   REPORT WEATHER SUCH AS PRECIPITATION OR FOG.

MTZ001>007-043-240400-
WEST OF THE DIVIDE
CITY           SKY/WX    TMP DP  RH WIND       PRES   REMARKS
KALISPELL      LGT RAIN  34  34 100 S8        29.90R WCI  27
MISSOULA       CLOUDY    34  32  92 CALM      29.98R
BUTTE          CLOUDY    30  19  64 SW9       29.92F WCI  22
MULLAN PASS    LGT SNOW  27  25  92 NW12G31   29.91R VSB 1    WCI  16
* ESSEX        N/A       30  29  96 S2G7       N/A
* LINCOLN      N/A       29  28  96 N/A        N/A
* LOOKOUT PASS N/A       30  29  96 NE3G10     N/A
* POLSON       N/A       32  32 100 E1         N/A
* RONAN APT    MOCLDY    36  30  79 SE8        N/A   WCI  30
* SEELEY LAKE  N/A       30  29  96 N/A        N/A
* THOMP F APT  MOCLDY    24  13  63 NE3        N/A
* YAAK HILL    N/A       32  30  92 N1         N/A
$$

MTZ008-052>055-240400-
SOUTHWEST MONTANA
CITY           SKY/WX    TMP DP  RH WIND       PRES   REMARKS
BOZEMAN        CLOUDY    36  19  50 W7        29.91S WCI  30
DILLON         MOCLDY    32  19  59 SW17G23   29.95F WCI  21
* W YELLOWSTON CLOUDY    24  20  85 SW4G10     N/A
* ENNIS APT    CLOUDY    36  14  40 S8         N/A   WCI  30
* THREE FORKS  CLOUDY    37  19  48 N/A        N/A
* BOULDER HILL N/A       28  21  75 S9G16      N/A   WCI  19
* MONIDA PASS  N/A       24  12  60 SW4        N/A
* RAYNOLDS PAS N/A       27   9  46 SE4G11     N/A
* WHITEHALL    N/A       37  18  46 SW13G24    N/A   WCI  29
* WISE RIVER   N/A       28  23  81 W9G18      N/A   WCI  19
$$

MTZ009>010-012-014-046-048-049-054-240400-
EAST SLOPES AND CENTRAL MONTANA
CITY           SKY/WX    TMP DP  RH WIND       PRES   REMARKS
CUT BANK       CLOUDY    34  25  70 W24G33    29.71S WCI  22
GREAT FALLS    CLOUDY    36  21  54 SW10      29.78F WCI  29
HELENA         CLOUDY    37  25  62 W6G20     29.86F WCI  32
MALMSTROM AFB  CLOUDY    37  23  57 SW17      29.79F WCI  27
* DEARBORN     N/A       41  22  47 S11G26     N/A
* EAST GLACIER N/A       30  24  78 W21G26     N/A   WCI  17
* MONARCH      N/A       31  20  64 S9G14      N/A   WCI  23
* PENDROY      N/A       37  18  46 W14G21     N/A   WCI  28
* ROGERS PASS  N/A       28  25  89 SE11G22    N/A   WCI  18
* SAINT MARY   N/A       30  27  89 S10G20     N/A   WCI  21
* SWEET GRASS  N/A       35  22  59 SW13G20    N/A   WCI  26
$$

MTZ011-013-016-021-035-040-045-047-050-051-240400-
NORTH CENTRAL MONTANA
CITY           SKY/WX    TMP DP  RH WIND       PRES   REMARKS
HAVRE          CLOUDY    34  25  70 NW5       29.74F WCI  29
LEWISTOWN      CLOUDY    36  19  50 W13       29.79F WCI  27
* N BAR RANCH  PTCLDY    28  14  56 SW6       29.80F WCI  21
* CHESTER      N/A       33  24  70 SW3        N/A
* DENTON       N/A       38  22  53 W17G24     N/A   WCI  29
* GEYSER       N/A       37  21  52 SW20G26    N/A   WCI  27
* JUDITH GAP   N/A       33  20  59 W4G10      N/A
* LOMA         N/A       40  24  53 SW4G9      N/A
$$

MTZ017>020-022>027-061-062-240400-
NORTHEAST MONTANA
CITY           SKY/WX    TMP DP  RH WIND       PRES   REMARKS
GLASGOW        CLEAR     18  12  77 NE6       29.82F WCI  10
GLENDIVE       CLEAR     16  12  84 CALM      29.83R
JORDAN         CLEAR     19  18  96 CALM      29.80F
SIDNEY         CLEAR     16   5  62 CALM      29.84S
WOLF POINT     CLEAR     19  12  74 NW5       29.85F WCI  12
* BEAVER HILL  N/A       16  13  88 W14        N/A   WCI   2
* CIRCLE       N/A       19  14  81 N/A        N/A
* LINDSAY DVD  N/A       15  13  92 NW12       N/A   WCI   1
* NAVAJO       N/A       17  13  84 NW9        N/A   WCI   6
* SACO         N/A       19  15  84 E7         N/A   WCI  10
$$

MTZ028>042-056>058-240400-
SOUTHCENTRAL AND SOUTHEAST MONTANA
CITY           SKY/WX    TMP DP  RH WIND       PRES   REMARKS
BAKER          PTCLDY    21  16  81 NW17G24   29.78S WCI   7
BILLINGS       CLOUDY    36  16  44 W12       29.85F WCI  28
LIVINGSTON     CLOUDY    37  16  42 SW25G31   29.88R WCI  25
MILES CITY     CLEAR     23  19  85 N6        29.83R WCI  16
* LAUREL APT   CLOUDY    34  10  37 N/A        N/A
* ALZADA       N/A       30  22  72 W13        N/A   WCI  20
* HYSHAM       N/A       31  13  47 W2         N/A
* LAME DEER    N/A       29  16  58 NW6        N/A   WCI  23
* REED POINT   N/A       41  18  39 W24G32     N/A
* ROSCOE HILL  N/A       35   4  27 SW5G12     N/A   WCI  31
$$

REGIONAL REPORTS...DAKOTAS
CITY           SKY/WX    TMP DP  RH WIND       PRES   REMARKS
WILLISTON      PTCLDY    12   9  88 N6        29.81S WCI   2
DICKINSON      PTCLDY    19  12  74 NW21G30   29.71S WCI   3
BEACH          PTCLDY    16  16 100 NW14      29.78F WCI   2
CROSBY         CLEAR     10   9  96 NW7       29.80F WCI  -1
BISMARCK       LGT SNOW  21  10  62 N22G33    29.69F WCI   5
GRAND FORKS    LGT SNOW  18  12  77 NW24G30   29.59S
FARGO          FOG       19  16  88 NW22G31   29.57R WCI   2
BUFFALO SD     PTCLDY    23  18  81 NW25G31   29.67S WCI   7
RAPID CITY     PTCLDY    36  21  54 NW24G32   29.71F WCI  24
$$

REGIONAL REPORTS...WYOMING/IDAHO/WASHINGTON
CITY           SKY/WX    TMP DP  RH WIND       PRES   REMARKS
SHERIDAN       CLOUDY    34  16  48 W7        29.84F WCI  28
CODY           CLOUDY    36  18  48 SW18G36   29.86F WCI  26
YELLOWSTONE LA CLOUDY    19  16  88 VRB7      29.96S WCI  10
SALMON         CLOUDY    37  21  52 SW8       30.00S WCI  31
MULLAN PASS    LGT SNOW  27  25  92 NW12G31   29.91S VSB 1    WCI  16
SAND POINT     CLOUDY    36  36 100 SE8       30.00R WCI  30
SPOKANE        PTCLDY    36  30  79 W21       30.02R WCI  25
$$

REGIONAL REPORTS...ALBERTA
CITY           SKY/WX    TMP DP  RH WIND       PRES   REMARKS
EDMONTON       LGT SNOW  30  27  89 W7        29.72R WCI  23

$$




USA.gov is the U.S. government's official web portal to all federal, state and local government web resources and services.